Eagle, CO

9:34 AM MDT on April 27, 2017 (GMT -0600)
Eagle County Regional

Weather History for KEGE - November, 2012

Change the Weather History Date:

Saturday, November 24, 2012

  Actual Average Record
Temperature  
Mean Temperature 36 °F -  
Max Temperature 55 °F 43 °F 64 °F (1981)
Min Temperature 17 °F 14 °F -6 °F (1956)
Degree Days  
Heating Degree Days 29    
Moisture  
Dew Point 19 °F    
Average Humidity 75    
Maximum Humidity 100    
Minimum Humidity 21    
Precipitation  
Precipitation 0.00 in - - ()
Sea Level Pressure  
Sea Level Pressure 30.30 in    
Wind  
Wind Speed 2 mph (ESE)    
Max Wind Speed 12 mph    
Max Gust Speed -    
Visibility 10 miles    
Events      
Averages and records for this station are not official NWS values.
T = Trace of Precipitation, MM = Missing Value Source: NWS Daily Summary

Daily Weather History Graph

Daily Weather History Graph

Search for Another Location

Airport or City:

Trip Planner

Search our weather history database for the weather conditions in past years. The results will help you decide how hot, cold, wet, or windy it might be!

Date:

Astronomy

Nov. 24, 2012 Rise Set
Actual Time 7:02 AM MST 4:46 PM MST
Civil Twilight 6:33 AM MST 5:15 PM MST
Nautical Twilight 6:00 AM MST 5:48 PM MST
Astronomical Twilight 5:27 AM MST 6:21 PM MST
Moon 2:31 PM MST (11/24) 3:22 AM MST (11/24)
Length of Visible Light 10h 42m
Length of Day
9h 43m
Waxing Gibbous, 87% of the Moon is Illuminated
Nov 24
Waxing Gibbous
Nov 28
Full
Dec 6
Last Quarter
Dec 13
New
Dec 19
First Quarter

Hourly Weather History & Observations

Time (MST) Temp. Windchill Dew Point Humidity Pressure Visibility Wind Dir Wind Speed Gust Speed Precip Events Conditions
12:15 AM 24.8 °F - 21.2 °F 86% 30.42 in 10.0 mi Calm Calm - N/A   Clear
12:35 AM 24.8 °F - 21.2 °F 86% 30.42 in 10.0 mi Calm Calm - N/A   Clear
12:55 AM 24.8 °F 20.5 °F 21.2 °F 86% 30.41 in 10.0 mi East 3.5 mph - N/A   Clear
1:15 AM 24.8 °F - 21.2 °F 86% 30.41 in 10.0 mi Calm Calm - N/A   Clear
1:35 AM 24.8 °F - 21.2 °F 86% 30.40 in 10.0 mi Calm Calm - N/A   Clear
1:55 AM 23.0 °F - 19.4 °F 86% 30.40 in 10.0 mi Calm Calm - N/A   Clear
2:15 AM 23.0 °F - 19.4 °F 86% 30.41 in 10.0 mi Calm Calm - N/A   Clear
2:35 AM 23.0 °F - 19.4 °F 86% 30.41 in 10.0 mi Calm Calm - N/A   Clear
2:55 AM 21.2 °F - 19.4 °F 93% 30.41 in 10.0 mi Calm Calm - N/A   Clear
3:15 AM 21.2 °F 16.4 °F 19.4 °F 93% 30.40 in 10.0 mi SSE 3.5 mph - N/A   Clear
3:35 AM 19.4 °F 11.5 °F 19.4 °F 100% 30.40 in 10.0 mi ENE 5.8 mph - N/A   Clear
3:55 AM 19.4 °F 14.3 °F 19.4 °F 100% 30.39 in 10.0 mi ESE 3.5 mph - N/A   Clear
4:15 AM 19.4 °F - 17.6 °F 93% 30.39 in 10.0 mi Calm Calm - N/A   Clear
4:35 AM 19.4 °F - 17.6 °F 93% 30.39 in 10.0 mi Calm Calm - N/A   Clear
4:55 AM 19.4 °F - 17.6 °F 93% 30.38 in 10.0 mi Calm Calm - N/A   Clear
5:15 AM 19.4 °F 12.8 °F 17.6 °F 93% 30.38 in 10.0 mi East 4.6 mph - N/A   Clear
5:35 AM 19.4 °F 12.8 °F 17.6 °F 93% 30.38 in 10.0 mi East 4.6 mph - N/A   Clear
5:55 AM 19.4 °F 12.8 °F 17.6 °F 93% 30.38 in 10.0 mi East 4.6 mph - N/A   Clear
6:15 AM 19.4 °F - 17.6 °F 93% 30.38 in 10.0 mi Calm Calm - N/A   Clear
6:35 AM 19.4 °F - 17.6 °F 93% 30.38 in 10.0 mi Calm Calm - N/A   Clear
6:50 AM 17.6 °F - 17.6 °F 100% 30.38 in 10.0 mi Calm Calm - N/A   Scattered Clouds
7:50 AM 17.6 °F - 17.6 °F 100% 30.38 in 10.0 mi Calm Calm - N/A   Partly Cloudy
8:50 AM 21.2 °F - 19.4 °F 93% 30.37 in 10.0 mi Calm Calm - N/A   Partly Cloudy
9:50 AM 26.6 °F - 21.2 °F 80% 30.05 in 10.0 mi Calm Calm - N/A   Partly Cloudy
10:50 AM 33.8 °F - 19.4 °F 56% 30.31 in 10.0 mi Calm Calm - N/A   Partly Cloudy
11:50 AM 39.2 °F - 21.2 °F 49% 30.25 in 10.0 mi Calm Calm - N/A   Scattered Clouds
12:50 PM 46.4 °F - 19.4 °F 34% 30.20 in 10.0 mi Calm Calm - N/A   Mostly Cloudy
1:51 PM 53.6 °F - 17.6 °F 24% 30.16 in 10.0 mi West 8.1 mph - N/A   Scattered Clouds
2:50 PM 55.4 °F - 15.8 °F 21% 30.14 in 10.0 mi West 11.5 mph - N/A   Mostly Cloudy
3:50 PM 53.6 °F - 17.6 °F 24% 30.14 in 10.0 mi WSW 10.4 mph - N/A   Scattered Clouds
4:50 PM 48.2 °F - 21.2 °F 34% 30.14 in 10.0 mi SW 8.1 mph - N/A   Scattered Clouds
5:50 PM 44.6 °F 38.8 °F 15.8 °F 31% 30.14 in 10.0 mi SSW 11.5 mph - N/A   Clear
6:50 PM 39.2 °F - 17.6 °F 42% 30.15 in 10.0 mi Calm Calm - N/A   Clear
7:50 PM 33.8 °F 27.0 °F 19.4 °F 56% 30.15 in 10.0 mi East 8.1 mph - N/A   Clear
8:50 PM 32.0 °F 24.8 °F 21.2 °F 64% 30.15 in 10.0 mi East 8.1 mph - N/A   Clear
9:50 PM 28.4 °F 22.2 °F 21.2 °F 74% 30.16 in 10.0 mi ENE 5.8 mph - N/A   Clear
10:50 PM 26.6 °F 22.6 °F 19.4 °F 74% 30.15 in 10.0 mi SE 3.5 mph - N/A   Clear
11:15 PM 26.6 °F - 19.4 °F 74% 30.15 in 10.0 mi Calm Calm - N/A   Clear
11:35 PM 26.6 °F - 19.4 °F 74% 30.15 in 10.0 mi Calm Calm - N/A   Clear
11:55 PM 26.6 °F - 19.4 °F 74% 30.15 in 10.0 mi Calm Calm - N/A   Clear